When you browse on this site, cookies collect data to enhance your experience and personalize the content and advertising you see.
Visit our Privacy Policy to learn more. By continuing to use the site, you agree to this use of cookies and data.
  • In Switzerland
  • List of Countries
  • For 7 days
  • Water Temperature
  • Weather Map
  • Weather Widgets
  • user-avatar
    Login

    Hourly Weather Larinskiy

    Today, 26 August, Monday

    Time Temperature Precipitation Wind Pressure Humidity
    00:00 +13°C° 0 mm 2 mps 751 mmHg 89%
    01:00 +13°C° 0 mm 2 mps 752 mmHg 91%
    02:00 +12°C° 0 mm 2 mps 752 mmHg 93%
    03:00 +12°C° 0 mm 1 mps 752 mmHg 93%
    04:00 +12°C° 0 mm 1 mps 752 mmHg 93%
    05:00 +11°C° 0 mm 1 mps 752 mmHg 94%
    06:00 +13°C° 0 mm 1 mps 752 mmHg 88%
    07:00 +15°C° 0 mm 1 mps 752 mmHg 82%
    08:00 +18°C° 0 mm 1 mps 752 mmHg 75%
    09:00 +19°C° 0 mm 1 mps 752 mmHg 70%
    10:00 +19°C° 0 mm 0 mps 752 mmHg 66%
    11:00 +20°C° 0 mm 0 mps 752 mmHg 61%
    12:00 +22°C° 0 mm 1 mps 751 mmHg 59%
    13:00 +22°C° 0 mm 1 mps 751 mmHg 57%
    14:00 +23°C° 0 mm 2 mps 751 mmHg 55%
    15:00 +21°C° 0 mm 2 mps 750 mmHg 59%
    16:00 +21°C° 0 mm 2 mps 750 mmHg 63%
    17:00 +22°C° 0 mm 1 mps 749 mmHg 67%
    18:00 +19°C° 0 mm 2 mps 749 mmHg 71%
    19:00 +17°C° 0 mm 2 mps 749 mmHg 75%
    20:00 +16°C° 0 mm 2 mps 749 mmHg 78%
    21:00 +15°C° 0 mm 2 mps 749 mmHg 80%
    22:00 +15°C° 0 mm 2 mps 748 mmHg 82%
    23:00 +15°C° 0 mm 2 mps 748 mmHg 83%

    Tomorrow, 27 August, Tuesday

    Time Temperature Precipitation Wind Pressure Humidity
    00:00 +14°C° 0 mm 2 mps 748 mmHg 85%
    01:00 +14°C° 0 mm 2 mps 748 mmHg 86%
    02:00 +13°C° 0 mm 3 mps 747 mmHg 87%
    03:00 +13°C° 0 mm 3 mps 747 mmHg 87%
    04:00 +13°C° 0 mm 3 mps 747 mmHg 87%
    05:00 +13°C° 0 mm 3 mps 746 mmHg 86%
    06:00 +15°C° 0 mm 4 mps 746 mmHg 85%
    07:00 +17°C° 0 mm 4 mps 746 mmHg 84%
    08:00 +17°C° 0 mm 5 mps 746 mmHg 82%
    09:00 +19°C° 0.2 mm 5 mps 746 mmHg 78%
    10:00 +20°C° 0.2 mm 5 mps 746 mmHg 74%
    11:00 +21°C° 0.2 mm 6 mps 745 mmHg 69%
    12:00 +22°C° 0.1 mm 6 mps 745 mmHg 66%
    13:00 +22°C° 0.1 mm 6 mps 745 mmHg 63%
    14:00 +22°C° 0.1 mm 6 mps 745 mmHg 60%
    15:00 +22°C° 0 mm 5 mps 745 mmHg 62%
    16:00 +21°C° 0 mm 4 mps 745 mmHg 65%
    17:00 +20°C° 0 mm 4 mps 745 mmHg 67%
    18:00 +18°C° 0 mm 4 mps 746 mmHg 69%
    19:00 +17°C° 0 mm 3 mps 746 mmHg 72%
    20:00 +14°C° 0 mm 3 mps 746 mmHg 74%
    21:00 +14°C° 0 mm 3 mps 746 mmHg 78%
    22:00 +13°C° 0 mm 3 mps 747 mmHg 81%
    23:00 +12°C° 0 mm 3 mps 747 mmHg 85%

    Day after tomorrow, 28 August, Wednesday

    Time Temperature Precipitation Wind Pressure Humidity
    00:00 +12°C° 0 mm 3 mps 747 mmHg 87%
    01:00 +11°C° 0 mm 3 mps 747 mmHg 90%
    02:00 +10°C° 0 mm 2 mps 747 mmHg 92%
    03:00 +10°C° 0 mm 3 mps 748 mmHg 92%
    04:00 +9°C° 0 mm 3 mps 748 mmHg 92%
    05:00 +9°C° 0 mm 3 mps 748 mmHg 92%
    06:00 +10°C° 0 mm 4 mps 748 mmHg 86%
    07:00 +11°C° 0 mm 4 mps 749 mmHg 80%
    08:00 +13°C° 0 mm 5 mps 749 mmHg 74%
    09:00 +14°C° 0 mm 5 mps 749 mmHg 68%
    10:00 +15°C° 0 mm 5 mps 749 mmHg 62%
    11:00 +15°C° 0 mm 5 mps 749 mmHg 56%
    12:00 +16°C° 0 mm 5 mps 749 mmHg 54%
    13:00 +16°C° 0 mm 5 mps 749 mmHg 51%
    14:00 +17°C° 0 mm 4 mps 749 mmHg 49%
    15:00 +17°C° 0 mm 4 mps 749 mmHg 52%
    16:00 +16°C° 0 mm 3 mps 749 mmHg 56%
    17:00 +16°C° 0 mm 3 mps 749 mmHg 60%
    18:00 +13°C° 0 mm 3 mps 749 mmHg 63%
    19:00 +12°C° 0 mm 2 mps 749 mmHg 65%
    20:00 +9°C° 0 mm 2 mps 750 mmHg 67%
    21:00 +9°C° 0 mm 2 mps 750 mmHg 69%
    22:00 +8°C° 0 mm 2 mps 750 mmHg 71%
    23:00 +7°C° 0 mm 2 mps 750 mmHg 72%

    29 August, Thursday

    Time Temperature Precipitation Wind Pressure Humidity
    00:00 +7°C° 0 mm 2 mps 750 mmHg 73%
    01:00 +8°C° 0 mm 1 mps 751 mmHg 74%
    02:00 +7°C° 0 mm 1 mps 751 mmHg 75%
    03:00 +7°C° 0 mm 1 mps 751 mmHg 76%
    04:00 +7°C° 0 mm 1 mps 751 mmHg 76%
    05:00 +7°C° 0 mm 1 mps 751 mmHg 77%
    06:00 +9°C° 0 mm 1 mps 751 mmHg 72%
    07:00 +9°C° 0 mm 2 mps 751 mmHg 67%
    08:00 +12°C° 0 mm 2 mps 751 mmHg 62%
    09:00 +14°C° 0 mm 2 mps 751 mmHg 57%
    10:00 +15°C° 0 mm 2 mps 751 mmHg 53%
    11:00 +17°C° 0 mm 2 mps 751 mmHg 49%
    12:00 +17°C° 0 mm 2 mps 750 mmHg 50%
    13:00 +18°C° 0 mm 2 mps 750 mmHg 52%
    14:00 +19°C° 0 mm 2 mps 750 mmHg 54%
    15:00 +18°C° 0 mm 2 mps 749 mmHg 59%
    16:00 +18°C° 0 mm 2 mps 749 mmHg 63%
    17:00 +18°C° 0 mm 2 mps 749 mmHg 68%
    18:00 +17°C° 0 mm 2 mps 749 mmHg 72%
    19:00 +15°C° 0 mm 2 mps 749 mmHg 76%
    20:00 +12°C° 0 mm 3 mps 749 mmHg 81%
    21:00 +13°C° 0 mm 2 mps 749 mmHg 83%
    22:00 +13°C° 0 mm 2 mps 749 mmHg 86%
    23:00 +12°C° 0 mm 2 mps 749 mmHg 89%

    30 August, Friday

    Time Temperature Precipitation Wind Pressure Humidity
    00:00 +12°C° 0 mm 2 mps 749 mmHg 90%
    01:00 +12°C° 0 mm 2 mps 748 mmHg 92%
    02:00 +12°C° 0 mm 1 mps 748 mmHg 93%
    03:00 +12°C° 0 mm 1 mps 748 mmHg 94%
    04:00 +11°C° 0 mm 1 mps 749 mmHg 94%
    05:00 +11°C° 0 mm 1 mps 749 mmHg 94%
    06:00 +13°C° 0 mm 1 mps 749 mmHg 90%
    07:00 +14°C° 0 mm 1 mps 749 mmHg 87%
    08:00 +15°C° 0 mm 1 mps 749 mmHg 83%
    09:00 +16°C° 0 mm 1 mps 749 mmHg 80%
    10:00 +18°C° 0 mm 1 mps 749 mmHg 78%
    11:00 +19°C° 0 mm 1 mps 749 mmHg 75%
    12:00 +19°C° 0.4 mm 1 mps 749 mmHg 76%
    13:00 +19°C° 0.4 mm 1 mps 748 mmHg 78%
    14:00 +19°C° 0.4 mm 1 mps 748 mmHg 79%
    15:00 +19°C° 0.2 mm 1 mps 748 mmHg 81%
    16:00 +18°C° 0.2 mm 1 mps 748 mmHg 83%
    17:00 +18°C° 0.2 mm 1 mps 748 mmHg 85%
    18:00 +16°C° 0 mm 1 mps 748 mmHg 87%
    19:00 +15°C° 0 mm 1 mps 748 mmHg 89%
    20:00 +14°C° 0 mm 1 mps 748 mmHg 91%
    21:00 +14°C° 0 mm 1 mps 748 mmHg 91%
    22:00 +14°C° 0 mm 1 mps 748 mmHg 91%
    23:00 +14°C° 0 mm 1 mps 748 mmHg 91%

    31 August, Saturday

    Time Temperature Precipitation Wind Pressure Humidity
    00:00 +13°C° 0 mm 1 mps 748 mmHg 91%
    01:00 +13°C° 0 mm 1 mps 749 mmHg 91%
    02:00 +13°C° 0 mm 1 mps 749 mmHg 91%
    03:00 +13°C° 0 mm 1 mps 748 mmHg 92%
    04:00 +13°C° 0 mm 1 mps 748 mmHg 93%
    05:00 +12°C° 0 mm 1 mps 748 mmHg 93%
    06:00 +14°C° 0 mm 1 mps 748 mmHg 89%
    07:00 +15°C° 0 mm 1 mps 748 mmHg 85%
    08:00 +18°C° 0 mm 1 mps 748 mmHg 81%
    09:00 +19°C° 0 mm 1 mps 748 mmHg 75%
    10:00 +21°C° 0 mm 1 mps 748 mmHg 70%
    11:00 +22°C° 0 mm 1 mps 749 mmHg 64%
    12:00 +22°C° 0 mm 1 mps 748 mmHg 62%
    13:00 +23°C° 0 mm 1 mps 748 mmHg 59%
    14:00 +23°C° 0 mm 2 mps 748 mmHg 57%
    15:00 +21°C° 0 mm 2 mps 748 mmHg 62%
    16:00 +22°C° 0 mm 1 mps 747 mmHg 66%
    17:00 +21°C° 0 mm 1 mps 747 mmHg 70%
    18:00 +20°C° 0 mm 1 mps 747 mmHg 74%
    19:00 +19°C° 0 mm 1 mps 747 mmHg 77%
    20:00 +15°C° 0 mm 0 mps 747 mmHg 81%
    21:00 +16°C° 0 mm 1 mps 747 mmHg 81%
    22:00 +16°C° 0 mm 1 mps 747 mmHg 82%
    23:00 +15°C° 0 mm 1 mps 747 mmHg 83%
    Show more